Time,TemperatureF,DewpointF,PressureIn,WindDirection,WindDirectionDegrees,WindSpeedMPH,WindSpeedGustMPH,Humidity,HourlyPrecipIn,Conditions,Clouds,dailyrainin,SoftwareType,DateUTC
2013-02-16 00:02:00,31.0,28.0,-100.00,South,182,1.0,2.0,87,0.00,,,-99.99,,2013-02-16 07:02:00,
2013-02-16 00:11:00,31.0,28.0,-100.00,SSE,165,2.0,3.0,87,0.00,,,-99.99,,2013-02-16 07:11:00,
2013-02-16 00:21:00,31.0,28.0,-100.00,SW,217,1.0,2.0,87,0.00,,,-99.99,,2013-02-16 07:21:00,
2013-02-16 00:31:00,31.0,28.0,-100.00,SW,217,1.0,2.0,87,0.00,,,-99.99,,2013-02-16 07:31:00,
2013-02-16 00:42:00,31.0,27.0,-100.00,South,181,1.0,4.0,88,0.00,,,-99.99,,2013-02-16 07:42:00,
2013-02-16 00:53:00,32.0,28.0,-100.00,West,260,1.0,2.0,85,0.00,,,-99.99,,2013-02-16 07:53:00,
2013-02-16 01:01:00,32.0,28.0,-100.00,West,260,1.0,2.0,85,0.00,,,-99.99,,2013-02-16 08:01:00,
2013-02-16 01:11:00,31.0,27.0,-100.00,SSE,165,2.0,3.0,86,0.00,,,-99.99,,2013-02-16 08:11:00,
2013-02-16 01:21:00,31.0,27.0,-100.00,SSE,151,2.0,3.0,86,0.00,,,-99.99,,2013-02-16 08:21:00,
2013-02-16 01:31:00,31.0,27.0,-100.00,SSE,151,2.0,3.0,86,0.00,,,-99.99,,2013-02-16 08:31:00,
2013-02-16 01:41:00,31.0,27.0,-100.00,SSW,212,0.0,1.0,87,0.00,,,-99.99,,2013-02-16 08:41:00,
2013-02-16 01:52:00,31.0,28.0,-100.00,NW,304,1.0,2.0,87,0.00,,,-99.99,,2013-02-16 08:52:00,
2013-02-16 02:01:00,31.0,28.0,-100.00,NW,304,1.0,2.0,87,0.00,,,-99.99,,2013-02-16 09:01:00,
2013-02-16 02:11:00,31.0,27.0,-100.00,ESE,123,3.0,5.0,86,0.00,,,-99.99,,2013-02-16 09:11:00,
2013-02-16 02:21:00,32.0,28.0,-100.00,NNW,346,2.0,7.0,85,0.00,,,-99.99,,2013-02-16 09:21:00,
2013-02-16 02:31:00,32.0,28.0,-100.00,NNW,346,2.0,7.0,85,0.00,,,-99.99,,2013-02-16 09:31:00,
2013-02-16 02:42:00,31.0,28.0,-100.00,SE,128,1.0,3.0,86,0.00,,,-99.99,,2013-02-16 09:42:00,
2013-02-16 02:52:00,31.0,27.0,-100.00,South,169,1.0,3.0,88,0.00,,,-99.99,,2013-02-16 09:52:00,
2013-02-16 03:01:00,31.0,27.0,-100.00,South,169,1.0,3.0,88,0.00,,,-99.99,,2013-02-16 10:01:00,
2013-02-16 03:11:00,30.0,27.0,-100.00,SE,141,3.0,5.0,87,0.00,,,-99.99,,2013-02-16 10:11:00,
2013-02-16 03:21:00,31.0,27.0,-100.00,SE,144,1.0,2.0,85,0.00,,,-99.99,,2013-02-16 10:21:00,
2013-02-16 03:31:00,31.0,27.0,-100.00,SE,144,1.0,2.0,85,0.00,,,-99.99,,2013-02-16 10:31:00,
2013-02-16 03:41:00,31.0,27.0,-100.00,SSE,167,2.0,3.0,87,0.00,,,-99.99,,2013-02-16 10:41:00,
2013-02-16 03:52:00,31.0,27.0,-100.00,South,172,3.0,4.0,86,0.00,,,-99.99,,2013-02-16 10:52:00,
2013-02-16 04:01:00,31.0,27.0,-100.00,South,172,3.0,4.0,86,0.00,,,-99.99,,2013-02-16 11:01:00,
2013-02-16 04:11:00,31.0,28.0,-100.00,SE,144,2.0,4.0,87,0.00,,,-99.99,,2013-02-16 11:11:00,
2013-02-16 04:22:00,31.0,27.0,-100.00,SE,134,2.0,4.0,86,0.00,,,-99.99,,2013-02-16 11:22:00,
2013-02-16 04:31:00,31.0,27.0,-100.00,SE,134,2.0,4.0,86,0.00,,,-99.99,,2013-02-16 11:31:00,
2013-02-16 04:42:00,32.0,28.0,-100.00,North,350,2.0,4.0,85,0.00,,,-99.99,,2013-02-16 11:42:00,
2013-02-16 04:52:00,31.0,27.0,-100.00,SE,143,2.0,4.0,86,0.00,,,-99.99,,2013-02-16 11:52:00,
2013-02-16 05:01:00,31.0,27.0,-100.00,SE,143,2.0,4.0,86,0.00,,,-99.99,,2013-02-16 12:01:00,
2013-02-16 05:12:00,32.0,28.0,-100.00,SE,140,1.0,2.0,86,0.00,,,-99.99,,2013-02-16 12:12:00,
2013-02-16 05:22:00,31.0,28.0,-100.00,ESE,116,2.0,4.0,86,0.00,,,-99.99,,2013-02-16 12:22:00,
2013-02-16 05:32:00,31.0,28.0,-100.00,ESE,116,2.0,4.0,86,0.00,,,-99.99,,2013-02-16 12:32:00,
2013-02-16 05:42:00,31.0,27.0,-100.00,South,181,1.0,3.0,87,0.00,,,-99.99,,2013-02-16 12:42:00,
2013-02-16 05:52:00,31.0,28.0,-100.00,SSW,196,0.0,1.0,87,0.00,,,-99.99,,2013-02-16 12:52:00,
2013-02-16 06:01:00,31.0,28.0,-100.00,SSW,196,0.0,1.0,87,0.00,,,-99.99,,2013-02-16 13:01:00,
2013-02-16 06:11:00,30.0,28.0,-100.00,SSW,208,1.0,2.0,90,0.00,,,-99.99,,2013-02-16 13:11:00,
2013-02-16 06:21:00,30.0,28.0,-100.00,SW,215,0.0,1.0,90,0.00,,,-99.99,,2013-02-16 13:21:00,
2013-02-16 06:31:00,30.0,28.0,-100.00,SW,215,0.0,1.0,90,0.00,,,-99.99,,2013-02-16 13:31:00,
2013-02-16 06:41:00,30.0,28.0,-100.00,SSE,147,2.0,4.0,90,0.00,,,-99.99,,2013-02-16 13:41:00,
2013-02-16 06:51:00,30.0,27.0,-100.00,South,172,1.0,2.0,90,0.00,,,-99.99,,2013-02-16 13:51:00,
2013-02-16 07:01:00,30.0,27.0,-100.00,South,172,1.0,2.0,90,0.00,,,-99.99,,2013-02-16 14:01:00,
2013-02-16 07:11:00,30.0,27.0,-100.00,SSE,161,2.0,4.0,89,0.00,,,-99.99,,2013-02-16 14:11:00,
2013-02-16 07:21:00,30.0,28.0,-100.00,SSW,209,1.0,2.0,90,0.00,,,-99.99,,2013-02-16 14:21:00,
2013-02-16 07:32:00,30.0,28.0,-100.00,SSW,209,1.0,2.0,90,0.00,,,-99.99,,2013-02-16 14:32:00,
2013-02-16 07:41:00,30.0,28.0,-100.00,SSW,212,0.0,2.0,90,0.00,,,-99.99,,2013-02-16 14:41:00,
2013-02-16 07:52:00,30.0,27.0,-100.00,South,185,1.0,3.0,91,0.00,,,-99.99,,2013-02-16 14:52:00,
2013-02-16 08:01:00,30.0,27.0,-100.00,South,185,1.0,3.0,91,0.00,,,-99.99,,2013-02-16 15:01:00,
2013-02-16 08:11:00,30.0,27.0,-100.00,South,185,1.0,3.0,91,0.00,,,-99.99,,2013-02-16 15:11:00,
2013-02-16 08:21:00,31.0,28.0,-100.00,SW,234,2.0,5.0,89,0.00,,,-99.99,,2013-02-16 15:21:00,
2013-02-16 08:31:00,31.0,28.0,-100.00,SW,234,2.0,5.0,89,0.00,,,-99.99,,2013-02-16 15:31:00,
2013-02-16 08:41:00,31.0,27.0,-100.00,SSE,164,1.0,2.0,88,0.00,,,-99.99,,2013-02-16 15:41:00,
2013-02-16 08:52:00,31.0,27.0,-100.00,South,186,0.0,2.0,88,0.00,,,-99.99,,2013-02-16 15:52:00,
2013-02-16 09:01:00,31.0,27.0,-100.00,South,186,0.0,2.0,88,0.00,,,-99.99,,2013-02-16 16:01:00,
2013-02-16 09:11:00,31.0,27.0,-100.00,South,186,0.0,2.0,88,0.00,,,-99.99,,2013-02-16 16:11:00,
2013-02-16 09:21:00,31.0,28.0,-100.00,SSW,193,1.0,2.0,86,0.00,,,-99.99,,2013-02-16 16:21:00,
2013-02-16 09:32:00,31.0,28.0,-100.00,SSW,193,1.0,2.0,86,0.00,,,-99.99,,2013-02-16 16:32:00,
2013-02-16 09:42:00,32.0,28.0,-100.00,ESE,110,3.0,4.0,85,0.00,,,-99.99,,2013-02-16 16:42:00,
2013-02-16 09:52:00,32.0,28.0,-100.00,SSE,167,0.0,0.0,85,0.00,,,-99.99,,2013-02-16 16:52:00,
2013-02-16 10:01:00,32.0,28.0,-100.00,SSE,167,0.0,0.0,85,0.00,,,-99.99,,2013-02-16 17:01:00,
2013-02-16 10:11:00,32.0,28.0,-100.00,SSW,193,0.0,0.0,85,0.00,,,-99.99,,2013-02-16 17:11:00,
2013-02-16 10:21:00,33.0,29.0,-100.00,SSE,165,0.0,1.0,85,0.00,,,-99.99,,2013-02-16 17:21:00,
2013-02-16 10:31:00,33.0,29.0,-100.00,SSE,165,0.0,1.0,85,0.00,,,-99.99,,2013-02-16 17:31:00,
2013-02-16 10:41:00,34.0,29.0,-100.00,West,264,0.0,1.0,82,0.00,,,-99.99,,2013-02-16 17:41:00,
2013-02-16 10:52:00,36.0,29.0,-100.00,WNW,287,1.0,2.0,76,0.00,,,-99.99,,2013-02-16 17:52:00,
2013-02-16 11:01:00,36.0,29.0,-100.00,WNW,287,1.0,2.0,76,0.00,,,-99.99,,2013-02-16 18:01:00,
2013-02-16 11:11:00,36.0,29.0,-100.00,WNW,289,1.0,2.0,76,0.00,,,-99.99,,2013-02-16 18:11:00,
2013-02-16 11:21:00,37.0,30.0,-100.00,WNW,288,1.0,2.0,74,0.00,,,-99.99,,2013-02-16 18:21:00,
2013-02-16 11:32:00,37.0,30.0,-100.00,WNW,288,1.0,2.0,74,0.00,,,-99.99,,2013-02-16 18:32:00,
2013-02-16 11:41:00,38.0,30.0,-100.00,NW,311,2.0,3.0,72,0.00,,,-99.99,,2013-02-16 18:41:00,
2013-02-16 11:52:00,39.0,30.0,-100.00,WNW,295,2.0,3.0,71,0.00,,,-99.99,,2013-02-16 18:52:00,
2013-02-16 12:02:00,39.0,30.0,-100.00,WNW,295,2.0,3.0,71,0.00,,,-99.99,,2013-02-16 19:02:00,
2013-02-16 12:11:00,40.0,31.0,-100.00,WSW,240,0.0,1.0,69,0.00,,,-99.99,,2013-02-16 19:11:00,
2013-02-16 12:21:00,41.0,31.0,-100.00,SE,130,1.0,3.0,68,0.00,,,-99.99,,2013-02-16 19:21:00,
2013-02-16 12:31:00,41.0,31.0,-100.00,SE,130,1.0,3.0,68,0.00,,,-99.99,,2013-02-16 19:31:00,
2013-02-16 12:42:00,42.0,32.0,-100.00,SE,130,1.0,2.0,65,0.00,,,-99.99,,2013-02-16 19:42:00,
2013-02-16 12:52:00,43.0,31.0,-100.00,South,172,0.0,1.0,63,0.00,,,-99.99,,2013-02-16 19:52:00,
2013-02-16 13:01:00,43.0,31.0,-100.00,South,172,0.0,1.0,63,0.00,,,-99.99,,2013-02-16 20:01:00,
2013-02-16 13:11:00,45.0,31.0,-100.00,SW,233,1.0,3.0,58,0.00,,,-99.99,,2013-02-16 20:11:00,
2013-02-16 13:21:00,45.0,31.0,-100.00,SW,227,1.0,2.0,59,0.00,,,-99.99,,2013-02-16 20:21:00,
2013-02-16 13:32:00,45.0,31.0,-100.00,SW,227,1.0,2.0,59,0.00,,,-99.99,,2013-02-16 20:32:00,
2013-02-16 13:42:00,44.0,31.0,-100.00,NNW,329,1.0,4.0,60,0.00,,,-99.99,,2013-02-16 20:42:00,
2013-02-16 13:52:00,44.0,32.0,-100.00,SE,141,2.0,4.0,61,0.00,,,-99.99,,2013-02-16 20:52:00,
2013-02-16 14:02:00,44.0,32.0,-100.00,SE,141,2.0,4.0,61,0.00,,,-99.99,,2013-02-16 21:02:00,
2013-02-16 14:11:00,44.0,31.0,-100.00,SSE,160,4.0,6.0,62,0.00,,,-99.99,,2013-02-16 21:11:00,
2013-02-16 14:21:00,43.0,31.0,-100.00,SSE,155,4.0,5.0,63,0.00,,,-99.99,,2013-02-16 21:21:00,
2013-02-16 14:31:00,43.0,31.0,-100.00,SSE,155,4.0,5.0,63,0.00,,,-99.99,,2013-02-16 21:31:00,
2013-02-16 14:41:00,43.0,31.0,-100.00,NW,322,1.0,3.0,63,0.00,,,-99.99,,2013-02-16 21:41:00,
2013-02-16 14:52:00,43.0,31.0,-100.00,SSE,160,5.0,7.0,64,0.00,,,-99.99,,2013-02-16 21:52:00,
2013-02-16 15:01:00,43.0,31.0,-100.00,SSE,160,5.0,7.0,64,0.00,,,-99.99,,2013-02-16 22:01:00,
2013-02-16 15:11:00,42.0,31.0,-100.00,SSE,155,5.0,7.0,65,0.00,,,-99.99,,2013-02-16 22:11:00,
2013-02-16 15:21:00,42.0,32.0,-100.00,SSW,213,2.0,3.0,67,0.00,,,-99.99,,2013-02-16 22:21:00,
2013-02-16 15:31:00,42.0,32.0,-100.00,SSW,213,2.0,3.0,67,0.00,,,-99.99,,2013-02-16 22:31:00,
2013-02-16 15:42:00,42.0,32.0,-100.00,SSE,154,4.0,6.0,68,0.00,,,-99.99,,2013-02-16 22:42:00,
2013-02-16 15:52:00,42.0,32.0,-100.00,SSE,162,2.0,6.0,68,0.00,,,-99.99,,2013-02-16 22:52:00,
2013-02-16 16:02:00,42.0,32.0,-100.00,SSE,162,2.0,6.0,68,0.00,,,-99.99,,2013-02-16 23:02:00,
2013-02-16 16:11:00,42.0,32.0,-100.00,WSW,237,1.0,3.0,67,0.00,,,-99.99,,2013-02-16 23:11:00,
2013-02-16 16:21:00,42.0,32.0,-100.00,SSE,151,2.0,3.0,66,0.00,,,-99.99,,2013-02-16 23:21:00,
2013-02-16 16:31:00,42.0,32.0,-100.00,SSE,151,2.0,3.0,66,0.00,,,-99.99,,2013-02-16 23:31:00,
2013-02-16 16:42:00,43.0,32.0,-100.00,SSE,162,2.0,4.0,65,0.00,,,-99.99,,2013-02-16 23:42:00,
2013-02-16 16:52:00,43.0,32.0,-100.00,SW,229,1.0,2.0,63,0.00,,,-99.99,,2013-02-16 23:52:00,
2013-02-16 17:01:00,43.0,32.0,-100.00,SW,229,1.0,2.0,63,0.00,,,-99.99,,2013-02-17 00:01:00,
2013-02-16 17:11:00,44.0,32.0,-100.00,South,179,2.0,5.0,64,0.00,,,-99.99,,2013-02-17 00:11:00,
2013-02-16 17:21:00,43.0,32.0,-100.00,South,169,5.0,9.0,64,0.00,,,-99.99,,2013-02-17 00:21:00,
2013-02-16 17:31:00,43.0,32.0,-100.00,South,169,5.0,9.0,64,0.00,,,-99.99,,2013-02-17 00:31:00,
2013-02-16 17:41:00,43.0,32.0,-100.00,South,174,3.0,8.0,65,0.00,,,-99.99,,2013-02-17 00:41:00,
2013-02-16 17:52:00,43.0,33.0,-100.00,South,178,3.0,7.0,67,0.00,,,-99.99,,2013-02-17 00:52:00,
2013-02-16 18:01:00,43.0,33.0,-100.00,South,178,3.0,7.0,67,0.00,,,-99.99,,2013-02-17 01:01:00,
2013-02-16 18:11:00,42.0,33.0,-100.00,South,172,1.0,2.0,69,0.00,,,-99.99,,2013-02-17 01:11:00,
2013-02-16 18:21:00,41.0,33.0,-100.00,SSE,158,0.0,0.0,71,0.00,,,-99.99,,2013-02-17 01:21:00,
2013-02-16 18:31:00,41.0,33.0,-100.00,SSE,158,0.0,0.0,71,0.00,,,-99.99,,2013-02-17 01:31:00,
2013-02-16 18:41:00,40.0,32.0,-100.00,NW,306,2.0,3.0,72,0.00,,,-99.99,,2013-02-17 01:41:00,
2013-02-16 18:52:00,39.0,33.0,-100.00,ESE,123,2.0,4.0,76,0.00,,,-99.99,,2013-02-17 01:52:00,
2013-02-16 19:01:00,39.0,33.0,-100.00,ESE,123,2.0,4.0,76,0.00,,,-99.99,,2013-02-17 02:01:00,
2013-02-16 19:11:00,39.0,32.0,-100.00,SSE,160,1.0,2.0,77,0.00,,,-99.99,,2013-02-17 02:11:00,
2013-02-16 19:21:00,38.0,33.0,-100.00,SE,134,2.0,3.0,80,0.00,,,-99.99,,2013-02-17 02:21:00,
2013-02-16 19:31:00,38.0,33.0,-100.00,SE,134,2.0,3.0,80,0.00,,,-99.99,,2013-02-17 02:31:00,
2013-02-16 19:41:00,39.0,32.0,-100.00,East,99,2.0,4.0,77,0.00,,,-99.99,,2013-02-17 02:41:00,
2013-02-16 19:52:00,38.0,32.0,-100.00,SSE,152,0.0,1.0,80,0.00,,,-99.99,,2013-02-17 02:52:00,
2013-02-16 20:01:00,38.0,32.0,-100.00,SSE,152,0.0,1.0,80,0.00,,,-99.99,,2013-02-17 03:01:00,
2013-02-16 20:11:00,37.0,32.0,-100.00,ESE,110,1.0,2.0,81,0.00,,,-99.99,,2013-02-17 03:11:00,
2013-02-16 20:21:00,37.0,33.0,-100.00,ESE,106,3.0,4.0,83,0.04,,,-99.99,,2013-02-17 03:21:00,
2013-02-16 20:31:00,37.0,33.0,-100.00,ESE,106,3.0,4.0,83,0.04,,,-99.99,,2013-02-17 03:31:00,
2013-02-16 20:42:00,37.0,32.0,-100.00,NNE,14,1.0,1.0,83,0.04,,,-99.99,,2013-02-17 03:42:00,
2013-02-16 20:52:00,37.0,32.0,-100.00,ESE,107,5.0,7.0,83,0.00,,,-99.99,,2013-02-17 03:52:00,
2013-02-16 21:01:00,37.0,32.0,-100.00,ESE,107,5.0,7.0,83,0.00,,,-99.99,,2013-02-17 04:01:00,
2013-02-16 21:11:00,39.0,34.0,-100.00,SSE,160,4.0,7.0,83,0.28,,,-99.99,,2013-02-17 04:11:00,
2013-02-16 21:21:00,38.0,35.0,-100.00,ESE,123,3.0,4.0,87,0.00,,,-99.99,,2013-02-17 04:21:00,
2013-02-16 21:31:00,38.0,35.0,-100.00,ESE,123,3.0,4.0,87,0.00,,,-99.99,,2013-02-17 04:31:00,
2013-02-16 21:41:00,38.0,35.0,-100.00,SE,133,2.0,4.0,88,0.00,,,-99.99,,2013-02-17 04:41:00,
2013-02-16 21:52:00,38.0,35.0,-100.00,South,188,1.0,2.0,88,0.04,,,-99.99,,2013-02-17 04:52:00,
2013-02-16 22:01:00,38.0,35.0,-100.00,South,188,1.0,2.0,88,0.04,,,-99.99,,2013-02-17 05:01:00,
2013-02-16 22:11:00,38.0,34.0,-100.00,ESE,106,1.0,3.0,86,0.00,,,-99.99,,2013-02-17 05:11:00,
2013-02-16 22:22:00,37.0,34.0,-100.00,NW,315,1.0,3.0,90,0.00,,,-99.99,,2013-02-17 05:22:00,
2013-02-16 22:32:00,37.0,34.0,-100.00,NW,315,1.0,3.0,90,0.00,,,-99.99,,2013-02-17 05:32:00,
2013-02-16 22:42:00,37.0,34.0,-100.00,NE,35,2.0,4.0,89,0.00,,,-99.99,,2013-02-17 05:42:00,
2013-02-16 22:52:00,37.0,34.0,-100.00,ESE,121,3.0,4.0,86,0.00,,,-99.99,,2013-02-17 05:52:00,
2013-02-16 23:01:00,37.0,34.0,-100.00,ESE,121,3.0,4.0,86,0.00,,,-99.99,,2013-02-17 06:01:00,
2013-02-16 23:11:00,38.0,34.0,-100.00,SE,141,2.0,4.0,85,0.00,,,-99.99,,2013-02-17 06:11:00,
2013-02-16 23:21:00,37.0,34.0,-100.00,SE,141,2.0,3.0,86,0.00,,,-99.99,,2013-02-17 06:21:00,
2013-02-16 23:31:00,37.0,34.0,-100.00,SE,141,2.0,3.0,86,0.00,,,-99.99,,2013-02-17 06:31:00,
2013-02-16 23:41:00,37.0,33.0,-100.00,SSE,152,2.0,3.0,88,0.00,,,-99.99,,2013-02-17 06:41:00,
2013-02-16 23:52:00,36.0,33.0,-100.00,SE,124,0.0,2.0,88,0.00,,,-99.99,,2013-02-17 06:52:00,